Weather History for KLCG - September, 2012

Change the Weather History Date:

Sunday, September 2, 2012

  Actual Average (KOFK) Record (KOFK)
Temperature  
Mean Temperature 80 °F 69 °F  
Max Temperature 98 °F 81 °F 101 °F (1956)
Min Temperature 63 °F 57 °F 40 °F (1974)
Degree Days  
Heating Degree Days 0 1  
Month to date heating degree days 2  
Since 1 July heating degree days 18  
Cooling Degree Days 16 6  
Month to date cooling degree days 12  
Year to date cooling degree days 828  
Growing Degree Days 30 (Base 50)    
Moisture  
Dew Point 64 °F    
Average Humidity 62    
Maximum Humidity 97    
Minimum Humidity 30    
Precipitation  
Precipitation 0.00 in 0.09 in 3.88 in (1970)
Month to date precipitation 0.19  
Year to date precipitation 20.72  
Snow  
Snow 0.00 in 0.00 in - ()
Month to date snowfall 0.0  
Since 1 July snowfall 0.0  
Snow Depth -    
Sea Level Pressure  
Sea Level Pressure 29.92 in    
Wind  
Wind Speed 8 mph (South)    
Max Wind Speed 16 mph    
Max Gust Speed 21 mph    
Visibility 10 miles    
Events      
T = Trace of Precipitation, MM = Missing Value Source: NWS Daily Summary

Daily Weather History Graph

Daily Weather History Graph

Search for Another Location

Airport or City:

Trip Planner

Search our weather history database for the weather conditions in past years. The results will help you decide how hot, cold, wet, or windy it might be!

Date:

Astronomy

Sep. 02, 2012 Rise Set
Actual Time 6:54 AM CDT 7:59 PM CDT
Civil Twilight 6:26 AM CDT 8:27 PM CDT
Nautical Twilight 5:51 AM CDT 9:02 PM CDT
Astronomical Twilight 5:15 AM CDT 9:37 PM CDT
Moon 8:42 PM CDT 9:08 AM CDT
Length of Visible Light 14h 01m
Length of Day
13h 04m
Waning Gibbous, 95% of the Moon is Illuminated
Sep 2
Waning Gibbous
Sep 8
Last Quarter
Sep 15
New
Sep 22
First Quarter
Sep 29
Full

Hourly Weather History & Observations

Time (CDT) Temp. Heat Index Dew Point Humidity Pressure Visibility Wind Dir Wind Speed Gust Speed Precip Events Conditions
12:15 AM 72.9 °F - 65.7 °F 78% 29.98 in 10.0 mi SE 6.9 mph - N/A   Clear
12:35 AM 73.2 °F - 65.5 °F 77% 29.98 in 10.0 mi SSE 6.9 mph - N/A   Clear
12:55 AM 73.4 °F - 65.7 °F 77% 29.97 in 10.0 mi SSE 9.2 mph - N/A   Clear
1:15 AM 72.3 °F - 65.7 °F 79% 29.97 in 10.0 mi SSE 8.1 mph - N/A   Clear
1:35 AM 71.6 °F - 65.7 °F 81% 29.98 in 10.0 mi SSE 9.2 mph - N/A   Clear
1:55 AM 71.2 °F - 66.2 °F 84% 29.98 in 10.0 mi SSE 12.7 mph - N/A   Clear
2:15 AM 71.6 °F - 65.8 °F 82% 29.98 in 10.0 mi SSE 12.7 mph 16.1 mph N/A   Clear
2:35 AM 71.2 °F - 64.9 °F 80% 29.97 in 10.0 mi SSE 13.8 mph - N/A   Clear
3:15 AM 69.6 °F - 64.6 °F 84% 29.97 in 10.0 mi South 6.9 mph - N/A   Clear
3:35 AM 67.6 °F - 64.2 °F 89% 29.97 in 10.0 mi SSE 5.8 mph - N/A   Clear
3:55 AM 66.9 °F - 64.0 °F 90% 29.97 in 10.0 mi South 5.8 mph - N/A   Clear
4:15 AM 66.2 °F - 63.9 °F 92% 29.96 in 10.0 mi South 4.6 mph - N/A   Clear
4:35 AM 66.2 °F - 63.7 °F 92% 29.96 in 10.0 mi South 4.6 mph - N/A   Clear
4:55 AM 64.9 °F - 63.5 °F 95% 29.97 in 10.0 mi Calm Calm - N/A   Clear
5:15 AM 64.8 °F - 63.7 °F 96% 29.96 in 10.0 mi SSE 4.6 mph - N/A   Clear
5:35 AM 64.9 °F - 63.7 °F 96% 29.96 in 10.0 mi South 5.8 mph - N/A   Clear
5:55 AM 64.6 °F - 63.7 °F 97% 29.95 in 10.0 mi SSE 6.9 mph - N/A   Clear
6:15 AM 64.8 °F - 63.7 °F 96% 29.96 in 10.0 mi South 4.6 mph - N/A   Clear
6:35 AM 64.4 °F - 63.5 °F 97% 29.97 in 10.0 mi South 3.5 mph - N/A   Clear
6:55 AM 64.0 °F - 63.1 °F 97% 29.97 in 7.0 mi Calm Calm - N/A   Clear
7:15 AM 63.7 °F - 63.0 °F 97% 29.97 in 7.0 mi Calm Calm - N/A   Clear
7:35 AM 64.8 °F - 63.1 °F 94% 29.98 in 10.0 mi Calm Calm - N/A   Clear
7:55 AM 65.7 °F - 63.3 °F 92% 29.98 in 10.0 mi SSW 3.5 mph - N/A   Clear
8:15 AM 66.7 °F - 63.5 °F 89% 29.98 in 10.0 mi SSW 4.6 mph - N/A   Clear
8:35 AM 69.3 °F - 63.0 °F 80% 29.98 in 10.0 mi South 8.1 mph - N/A   Clear
8:55 AM 71.2 °F - 63.1 °F 75% 29.97 in 10.0 mi South 9.2 mph - N/A   Clear
9:15 AM 73.2 °F - 63.7 °F 72% 29.96 in 10.0 mi South 12.7 mph - N/A   Clear
9:35 AM 75.6 °F - 64.6 °F 69% 29.96 in 10.0 mi South 10.4 mph - N/A   Clear
9:55 AM 77.4 °F - 65.1 °F 66% 29.96 in 10.0 mi South 11.5 mph - N/A   Clear
10:15 AM 79.5 °F - 65.5 °F 62% 29.96 in 10.0 mi South 11.5 mph - N/A   Clear
10:35 AM 81.0 °F 83.0 °F 65.7 °F 60% 29.96 in 10.0 mi South 11.5 mph - N/A   Clear
10:55 AM 82.6 °F 84.5 °F 65.5 °F 56% 29.96 in 10.0 mi South 11.5 mph - N/A   Clear
11:15 AM 85.1 °F 87.1 °F 65.5 °F 52% 29.95 in 10.0 mi South 12.7 mph - N/A   Clear
11:35 AM 86.2 °F 88.2 °F 65.3 °F 50% 29.94 in 10.0 mi South 12.7 mph 16.1 mph N/A   Clear
11:55 AM 87.6 °F 89.7 °F 65.5 °F 48% 29.93 in 10.0 mi South 15.0 mph - N/A   Clear
12:15 PM 89.1 °F 91.0 °F 65.5 °F 45% 29.93 in 10.0 mi South 13.8 mph - N/A   Clear
12:35 PM 90.0 °F 92.0 °F 65.3 °F 44% 29.93 in 10.0 mi SSW 9.2 mph 17.3 mph N/A   Clear
12:55 PM 90.7 °F 92.8 °F 65.1 °F 43% 29.92 in 10.0 mi South 12.7 mph 20.7 mph N/A   Clear
1:15 PM 91.9 °F 93.7 °F 64.6 °F 40% 29.91 in 10.0 mi SSW 13.8 mph 17.3 mph N/A   Clear
1:35 PM 92.8 °F 95.2 °F 65.3 °F 40% 29.90 in 10.0 mi South 10.4 mph 19.6 mph N/A   Clear
1:55 PM 93.6 °F 95.9 °F 64.9 °F 39% 29.89 in 10.0 mi South 16.1 mph 19.6 mph N/A   Clear
2:15 PM 95.0 °F 97.4 °F 64.6 °F 37% 29.88 in 10.0 mi South 13.8 mph 18.4 mph N/A   Clear
2:35 PM 95.4 °F 97.1 °F 64.0 °F 35% 29.88 in 10.0 mi South 13.8 mph 20.7 mph N/A   Clear
2:55 PM 96.3 °F 98.6 °F 64.2 °F 35% 29.87 in 10.0 mi South 12.7 mph 18.4 mph N/A   Clear
3:15 PM 96.4 °F 98.4 °F 63.7 °F 34% 29.86 in 10.0 mi SSW 13.8 mph 19.6 mph N/A   Clear
3:35 PM 96.6 °F 98.7 °F 64.2 °F 34% 29.85 in 10.0 mi South 13.8 mph 18.4 mph N/A   Clear
3:55 PM 97.0 °F 99.3 °F 64.2 °F 34% 29.85 in 10.0 mi SSW 15.0 mph 19.6 mph N/A   Clear
4:15 PM 97.7 °F 99.5 °F 63.1 °F 32% 29.85 in 10.0 mi SSW 9.2 mph 18.4 mph N/A   Clear
4:35 PM 97.9 °F 99.3 °F 62.6 °F 31% 29.85 in 10.0 mi South 12.7 mph 17.3 mph N/A   Clear
4:55 PM 98.1 °F 99.6 °F 62.4 °F 31% 29.86 in 10.0 mi SSW 8.1 mph 17.3 mph N/A   Clear
5:15 PM 97.9 °F 98.8 °F 61.9 °F 30% 29.86 in 10.0 mi SW 11.5 mph 19.6 mph N/A   Clear
5:35 PM 97.7 °F 99.0 °F 61.9 °F 31% 29.85 in 10.0 mi SW 5.8 mph - N/A   Clear
5:55 PM 95.9 °F 96.6 °F 61.9 °F 32% 29.85 in 10.0 mi SSW 8.1 mph - N/A   Clear
6:15 PM 95.5 °F 96.5 °F 61.9 °F 33% 29.84 in 10.0 mi SSW 5.8 mph - N/A   Clear
6:35 PM 94.8 °F 95.8 °F 62.6 °F 34% 29.84 in 10.0 mi South 6.9 mph - N/A   Clear
6:55 PM 94.6 °F 95.9 °F 62.8 °F 35% 29.84 in 10.0 mi South 4.6 mph - N/A   Clear
7:15 PM 91.4 °F 93.2 °F 64.8 °F 41% 29.84 in 10.0 mi SE 9.2 mph - N/A   Clear
7:35 PM 89.8 °F 91.8 °F 65.1 °F 44% 29.84 in 10.0 mi SSE 8.1 mph - N/A   Clear
7:55 PM 88.3 °F 90.2 °F 64.9 °F 46% 29.84 in 10.0 mi SSE 6.9 mph - N/A   Clear
8:15 PM 86.9 °F 88.6 °F 65.3 °F 48% 29.85 in 10.0 mi SSE 8.1 mph - N/A   Clear
8:35 PM 85.3 °F 87.1 °F 65.3 °F 51% 29.85 in 10.0 mi SSE 6.9 mph - N/A   Clear
8:55 PM 84.4 °F 86.1 °F 65.1 °F 52% 29.86 in 10.0 mi SSE 8.1 mph - N/A   Clear
9:15 PM 83.8 °F 85.3 °F 64.8 °F 52% 29.87 in 10.0 mi SSE 9.2 mph - N/A   Clear
9:35 PM 83.1 °F 84.6 °F 64.6 °F 53% 29.88 in 10.0 mi SSE 8.1 mph - N/A   Clear
9:55 PM 81.9 °F 83.5 °F 64.8 °F 56% 29.88 in 10.0 mi SSE 8.1 mph - N/A   Clear
10:15 PM 81.1 °F 82.8 °F 64.6 °F 57% 29.88 in 10.0 mi SSE 9.2 mph - N/A   Clear
10:35 PM 80.2 °F 81.9 °F 64.4 °F 58% 29.88 in 10.0 mi South 8.1 mph - N/A   Clear
10:55 PM 80.2 °F 81.9 °F 64.4 °F 58% 29.88 in 10.0 mi South 9.2 mph - N/A   Clear
11:15 PM 79.3 °F - 64.6 °F 60% 29.89 in 10.0 mi South 9.2 mph - N/A   Clear
11:55 PM 78.1 °F - 64.4 °F 63% 29.90 in 10.0 mi Calm Calm - N/A   Clear